This demonstration page uses our WeatherBlox Daily Observations layout. Learn more.

Left ArrowRight Arrow

34.02893, -84.19858

Hourly Observations for April 10, 2019

Temp ( °F °C ) Dew Point ( °F °C ) Humidity (%) Winds ( mph kmh ) Pressure ( in mb ) Visibility ( mi km ) Precip ( " mm )
12:53 am 00:53 Clear 59 15 58 14.4 96 96 Calm 29.76 1008 8 13 0.00 0.00
1:35 am 01:35 Clear with Mist and Fog 57 13.9 57 13.9 100 100 Calm 29.80 1009 1 2 0.00 0.00
1:53 am 01:53 Clear with Mist and Fog 56 13.3 56 13.3 100 100 Calm 29.77 1008 1 2 0.00 0.00
2:14 am 02:14 Clear with Fog 55 12.8 55 12.8 100 100 Calm 29.79 1009 1 1 0.00 0.00
2:30 am 02:30 Mostly Cloudy with Fog 54 12.2 53 11.7 97 97 Calm 29.79 1009 0 0 0.00 0.00
2:53 am 02:53 Mostly Cloudy with Fog 55 12.8 55 12.8 100 100 Calm 29.77 1008 0 0 0.00 0.00
3:53 am 03:53 Mostly Cloudy with Fog 54 12.2 53 11.7 97 97 Calm 29.77 1008 1 1 0.00 0.00
4:25 am 04:25 Mostly Cloudy with Mist and Fog 54 12.2 54 12.2 100 100 Calm 29.79 1009 1 2 0.00 0.00
4:28 am 04:28 Mostly Clear with Mist and Fog 54 12.2 54 12.2 100 100 Calm 29.79 1009 2 3 0.00 0.00
4:35 am 04:35 Mostly Clear 55 12.8 54 12.2 96 96 Calm 29.79 1009 9 14 0.00 0.00
4:53 am 04:53 Clear 55 12.8 55 12.8 100 100 Calm 29.77 1008 10 16 0.00 0.00
5:53 am 05:53 Clear 54 12.2 54 12.2 100 100 N 3 6 29.79 1009 10 16 0.00 0.00
6:53 am 06:53 Clear 55 12.8 53 11.7 93 93 Calm 29.81 1010 10 16 0.00 0.00
7:53 am 07:53 Sunny 55 12.8 54 12.2 96 96 Calm 29.83 1010 9 14 0.00 0.00
8:53 am 08:53 Sunny 62 16.7 56 13.3 80 80 NNE 3 6 29.84 1011 10 16 0.00 0.00
9:53 am 09:53 Sunny 68 20 56 13.3 65 65 N 7 11 29.85 1011 10 16 0.00 0.00
10:53 am 10:53 Sunny 72 22.2 55 12.8 55 55 NNE 5 7 29.85 1011 10 16 0.00 0.00
11:53 am 11:53 Sunny 75 23.9 54 12.2 48 48 VRB 3 6 29.86 1011 10 16 0.00 0.00
12:53 pm 12:53 Sunny 76 24.4 53 11.7 45 45 Calm 29.84 1010 10 16 0.00 0.00
1:53 pm 13:53 Mostly Sunny 78 25.6 52 11.1 40 40 Calm 29.82 1010 10 16 0.00 0.00
2:53 pm 14:53 Sunny 78 25.6 51 10.6 39 39 VRB 3 6 29.80 1009 10 16 0.00 0.00
3:53 pm 15:53 Sunny 80 26.7 51 10.6 37 37 Calm 29.78 1009 10 16 0.00 0.00
4:53 pm 16:53 Sunny 81 27.2 50 10 34 34 S 3 6 29.77 1008 10 16 0.00 0.00
5:53 pm 17:53 Sunny 80 26.7 52 11.1 38 38 SSE 6 9 29.77 1008 10 16 0.00 0.00
6:53 pm 18:53 Sunny 78 25.6 52 11.1 40 40 S 5 7 29.78 1008 10 16 0.00 0.00
7:53 pm 19:53 Sunny 75 23.9 50 10 41 41 SSE 5 7 29.79 1009 10 16 0.00 0.00
8:53 pm 20:53 Clear 70 21.1 53 11.7 55 55 SE 3 6 29.80 1009 10 16 0.00 0.00
9:53 pm 21:53 Clear 69 20.6 52 11.1 55 55 S 5 7 29.82 1010 10 16 0.00 0.00
10:53 pm 22:53 Clear 63 17.2 54 12.2 73 73 Calm 29.83 1010 10 16 0.00 0.00
11:53 pm 23:53 Clear 61 16.1 55 12.8 81 81 Calm 29.84 1010 10 16 0.00 0.00

Powered by AerisWeather